SCP
0 0 0 0 0 0 0 0 0 0 0 0 0 0 0 0 0 0 0 0 0 0 0 0 0 0 0 0 0 0 0 0 0 0 0 0 0 0 0 0 0 0 0
0 0 0 0 0 0 0 0 0 0 0 0 0 0 0 0 0 0 0 0 0 0 0 0 0 0 0 0 0 0 0 0 0 0 0 0 0 0 0 0 0 0 0
0 0 0 0 0 0 0 0 0 0 0 0 0 0 0 0 0 0 0 0 0 0 0 0 0 0 0 0 0 0 0 0 0 0 0 0 0 0 0 0 0 0 0
0 0 0 0 0 0 0 0 0 0 0 0 0 0 0 0 0 0 0 0 0 0 0 0 0 0 0 0 0 0 0 0 0 0 0 0 0 0 0 0 0 0 0
0 0 0 0 0 0 0 0 0 0 0 0 0 0 0 0 0 0 0 0 0 0 0 0 0 0 0 0 0 0 0 0 0 0 0 0 0 0 0 0 0 0 0
0 0 0 0 0 0 0 0 0 0 0 0 0 0 0 0 0 0 0 0 0 0 0 0 0 0 0 0 0 0 0 0 0 0 0 0 0 0 0 0 0 0 0
0 0 0 0 0 0 0 0 0 0 0 0 0 0 0 0 0 0 0 0 0 0 0 0 0 0 0 0 0 0 0 0 0 0 0 0 0 0 0 0 0 0 0
0 0 0 0 0 0 0 0 0 0 0 0 0 0 0 0 0 0 0 0 0 0 0 0 0 0 0 0 0 0 0 0 0 0 0 0 0 0 0 0 0 0 0
0 0 0 0 0 0 0 0 0 0 0 0 0 0 0 0 0 0 0 0 0 0 0 0 0 0 0 0 0 0 0 0 0 0 0 0 0 0 0 0 0 0 0
0 0 0 0 0 0 0 0 0 0 0 0 0 0 0 0 0 0 0 0 0 0 0 0 0 0 0 0 0 0 0 0 0 0 0 0 0 0 0 0 0 0 0
0 0 0 0 0 0 0 0 0 0 0 0 0 0 0 0 0 0 0 0 0 0 0 0 0 0 0 0 0 0 0 0 0 0 0 0 0 0 0 0 0 0 0
0 0 0 0 0 0 0 0 0 0 0 0 0 0 0 0 0 0 0 0 0 0 0 0 0 0 0 0 0 0 0 0 0 0 0 0 0 0 0 0 0 0 0
0 0 0 0 0 0 0 0 0 0 0 0 0 0 0 0 0 0 0 0 0 0 0 0 0 0 0 0 0 0 0 0 0 0 0 0 0 0 0 0 0 0 0
0 0 0 0 0 0 0 0 0 0 0 0 0 0 0 0 0 0 0 0 0 0 0 0 0 0 0 0 0 0 0 0 0 0 0 0 0 0 0 0 0 0 0
0 0 0 0 0 0 0 0 0 0 0 0 0 0 0 0 0 0 0 0 0 0 0 0 0 0 0 0 0 0 0 0 0 0 0 0 0 0 0 0 0 0 0
0 0 0 0 0 0 0 0 0 0 0 0 0 0 0 0 0 0 0 0 0 0 0 0 0 0 0 0 0 0 0 0 0 0 0 0 0 0 0 0 0 0 0
0 0 0 0 0 0 0 0 0 0 0 0 0 0 0 0 0 0 0 0 0 0 0 0 0 0 0 0 0 0 0 0 0 0 0 0 0 0 0 0 0 0 0
0 0 0 0 0 0 0 0 0 0 0 0 0 0 0 0 0 0 0 0 0 0 0 0 0 0 0 0 0 0 0 0 0 0 0 0 0 0 0 0 0 0 0
0 0 0 0 0 0 0 0 0 0 0 0 0 0 0 0 0 0 0 0 0 0 0 0 0 0 0 0 0 0 0 0 0 0 0 0 0 0 0 0 0 0 0
0 0 0 0 0 0 0 0 0 0 0 0 0 0 0 0 0 0 0 0 0 0 0 0 0 0 0 0 0 0 0 0 0 0 0 0 0 0 0 0 0 0 0
0 0 0 0 0 0 0 0 0 0 0 0 0 0 0 0 0 0 0 0 0 0 0 0 0 0 0 0 0 0 0 0 0 0 0 0 0 0 0 0 0 0 -0
0 0 0 0 0 0 0 0 0 0 0 0 0 0 0 0 0 0 0 0 0 0 0 0 0 0 0 0 0 0 0 0 0 0 0 0 0 0 0 0 0 0 -0
0 0 0 0 0 0 0 0 0 0 0 0 0 0 0 0 0 0 0 0 0 0 0 0 0 0 0 0 0 0 0 0 0 0 0 0 0 0 0 0 0 0 -0
0 0 0 0 0 0 0 0 0 0 0 0 0 0 0 0 0 0 0 0 0 0 0 0 0 0 0 0 0 0 0 0 0 0 0 0 0 0 0 0 0 0 0
0 0 0 0 0 0 0 0 0 0 0 0 0 0 0 0 0 0 0 0 0 0 0 0 0 0 0 0 0 0 0 0 0 0 0 0 0 0 0 0 0 0 0
0 0 0 0 0 0 0 0 0 0 0 0 0 0 0 0 0 0 0 0 0 0 0 0 0 0 0 0 0 0 0 0 0 0 0 0 0 0 0 0 0 0 0
Wind_Speed
4 6 8 8 7 9 9 9 11 8 5 3 2 1 1 2 2 2 3 3 4 4 3 4 5 5 5 7 7 7 8 8 6 7 9 9 10 11 11 11 12 13 14
5 7 8 8 8 8 10 12 12 11 8 4 3 3 3 3 3 5 7 7 7 6 5 4 4 5 5 6 7 7 6 7 5 4 6 6 5 8 10 10 10 12 11
5 4 5 6 7 9 10 10 11 12 11 8 5 5 5 4 5 6 6 8 8 9 9 8 6 6 5 5 6 6 7 8 6 5 7 8 7 5 5 8 10 11 10
4 4 4 6 7 7 7 9 10 12 11 9 10 10 8 6 5 3 4 6 8 9 9 8 8 7 6 6 7 7 6 7 7 6 5 8 9 10 8 4 5 8 9
5 5 5 6 5 6 7 8 10 11 10 10 9 9 8 5 4 5 7 8 7 8 10 9 8 7 6 6 7 7 6 4 5 5 7 8 8 7 9 12 7 6 6
5 5 4 6 6 6 7 7 10 10 9 10 10 10 9 8 9 8 8 6 5 5 9 9 8 7 7 7 7 7 7 6 6 6 5 6 6 7 7 12 13 11 7
6 5 6 6 6 7 7 7 10 10 8 10 11 10 9 8 9 7 7 7 6 5 9 8 8 8 8 8 7 7 7 7 7 7 6 6 6 7 8 10 12 13 10
6 6 6 6 6 7 7 7 9 8 8 9 9 8 8 6 5 6 5 6 5 5 8 9 9 9 9 9 8 7 7 7 7 8 8 7 7 7 8 8 10 13 11
7 6 5 6 6 7 6 6 8 8 7 7 7 7 7 6 6 5 5 4 5 6 8 8 8 9 9 9 9 7 9 8 7 8 8 8 8 7 7 7 7 9 14
6 6 5 6 6 6 6 6 7 7 7 6 6 6 6 6 6 5 6 6 6 7 7 8 8 9 9 9 9 9 9 9 8 8 10 10 8 8 6 6 6 7 10
7 6 6 6 6 6 6 6 7 7 6 6 6 7 6 6 6 6 6 6 6 7 7 8 9 9 9 10 10 10 9 11 11 10 11 12 11 8 7 7 7 7 7
6 6 7 6 6 6 6 6 6 6 6 5 6 6 6 6 6 6 6 6 6 6 7 8 8 9 9 10 10 10 10 11 12 11 11 11 10 10 9 9 9 8 6
6 6 6 6 6 5 5 6 6 5 5 5 5 5 6 6 6 6 6 6 7 7 8 8 9 9 10 10 8 9 10 10 10 9 10 12 12 11 10 11 10 7 7
7 7 6 6 5 5 5 5 5 5 4 4 5 5 5 5 6 6 6 6 7 8 9 9 9 9 11 10 10 12 12 11 9 8 10 12 12 13 14 12 9 8 9
7 7 7 6 5 5 4 4 4 4 3 4 4 4 4 5 5 6 6 6 7 9 8 9 10 10 10 10 15 14 14 12 12 11 10 11 18 22 18 16 14 13 11
6 7 7 7 5 5 4 3 3 3 3 3 3 4 5 5 6 6 7 7 8 8 9 9 11 12 11 21 25 21 13 13 13 15 14 14 14 19 26 28 27 25 19
6 8 8 7 6 5 4 3 2 2 2 3 4 5 5 6 6 7 7 8 8 9 9 10 11 12 14 24 26 26 18 12 13 14 14 14 15 21 14 20 26 23 28
6 8 7 6 5 4 4 3 2 3 3 4 5 5 5 6 6 6 7 7 7 8 9 10 11 12 15 24 26 27 14 11 12 13 13 14 14 15 21 19 18 16 17
6 6 6 5 5 4 3 3 3 3 4 4 5 5 6 6 7 7 7 7 8 9 9 10 11 12 15 23 26 26 12 11 12 12 12 15 14 25 32 23 21 21 17
5 6 6 6 5 4 3 3 3 3 4 5 5 6 6 6 7 7 7 7 8 9 11 12 10 11 13 21 25 26 12 12 12 11 11 18 22 29 33 22 19 20 19
6 7 7 5 4 3 3 2 2 3 4 5 5 6 6 7 7 6 6 8 9 10 10 13 11 10 13 19 24 27 14 13 14 13 12 11 26 31 34 29 16 22 25
6 6 6 5 3 3 2 1 3 4 5 5 6 6 7 7 7 7 8 8 9 10 11 12 12 8 9 15 20 27 25 24 16 13 12 14 28 32 32 24 25 32 26
5 5 5 4 3 2 2 2 4 5 5 5 6 7 7 7 7 7 8 8 7 8 10 10 11 10 7 10 23 25 27 28 17 14 23 25 28 28 20 24 30 24 14
5 4 4 3 1 1 1 3 5 5 5 6 7 7 7 7 6 6 6 7 7 9 11 11 12 11 10 9 9 11 13 18 16 14 16 21 24 21 22 21 16 12 13
4 4 4 2 1 2 3 4 5 5 5 6 7 7 7 7 7 7 6 8 7 10 14 11 11 12 12 15 27 21 15 15 16 19 9 9 11 12 12 12 12 12 13
4 4 3 0 2 4 5 5 5 5 5 6 6 5 6 6 7 8 9 13 15 21 22 22 20 15 20 28 28 29 29 29 30 21 12 12 11 13 14 15 15 14 14
Wind_Direction
28 22 22 17 22 22 25 28 33 25 41 67 77 72 1 344 340 329 311 302 292 283 266 274 284 285 277 280 279 276 278 277 274 278 280 271 258 254 253 250 251 252 250
52 33 26 25 28 28 28 36 37 34 36 52 67 79 78 50 39 31 31 25 24 19 15 354 334 325 313 309 305 296 288 284 265 257 280 283 266 245 245 245 246 248 247
106 73 47 38 35 34 31 41 41 41 39 41 54 52 49 42 30 25 28 28 37 37 32 25 16 5 360 343 332 325 312 307 297 252 264 286 285 279 251 244 246 246 246
129 112 85 60 46 38 38 48 49 48 42 46 60 64 64 57 29 20 23 23 28 29 22 16 10 3 359 352 346 348 336 329 325 318 281 284 298 301 299 259 258 261 258
151 128 100 82 61 49 52 54 57 52 46 51 58 67 64 55 36 28 27 22 16 20 16 9 4 357 350 342 338 337 334 327 319 318 315 313 311 302 305 302 298 283 267
161 131 105 89 71 59 59 60 66 55 47 54 54 58 56 44 37 27 20 12 5 5 10 2 358 350 346 339 333 326 321 313 307 306 304 305 303 309 304 301 303 297 290
165 145 122 98 86 75 69 66 71 60 49 57 55 51 51 47 40 25 15 9 2 356 358 355 350 348 341 335 332 325 319 309 310 305 302 299 293 295 295 296 300 299 295
175 160 137 117 105 94 80 74 74 66 55 60 58 51 49 47 37 25 16 9 358 346 349 347 345 341 338 336 333 324 318 317 312 309 308 305 298 293 289 289 297 300 299
176 162 134 119 112 99 84 81 81 71 59 60 65 53 46 42 31 20 14 4 353 348 345 339 339 337 335 334 332 325 321 321 320 316 310 307 303 296 290 287 292 299 305
168 154 131 120 107 98 88 77 75 74 65 58 56 55 39 32 23 17 9 358 348 343 338 339 337 335 334 332 329 327 323 331 327 318 312 309 305 302 295 295 295 290 292
169 153 131 121 108 93 82 75 69 68 61 56 51 45 31 22 16 12 0 349 341 338 339 337 336 335 334 331 328 325 331 328 321 316 316 314 313 315 315 307 300 294 293
160 140 133 124 109 95 84 76 68 62 55 52 48 38 23 13 9 0 349 343 340 336 335 333 332 332 331 325 320 322 328 319 318 320 323 324 325 319 314 306 298 289 292
145 135 135 126 113 100 86 73 60 56 52 52 45 31 16 7 358 348 342 342 340 337 337 335 332 329 327 321 316 318 317 313 312 319 325 321 315 308 305 300 292 283 296
153 146 138 123 112 102 88 75 59 51 54 50 40 24 6 352 342 336 336 336 334 335 336 333 328 326 324 318 323 324 320 315 314 316 314 312 309 307 305 302 293 297 295
157 152 140 130 121 106 90 79 66 52 52 46 30 6 345 337 337 335 333 332 332 336 327 326 326 325 323 327 328 325 322 319 318 316 309 306 311 312 313 314 312 307 300
163 148 138 136 133 125 115 99 77 48 43 35 8 347 343 341 339 334 332 332 330 327 326 325 325 327 329 326 328 327 319 318 318 317 314 310 309 311 317 313 309 309 308
164 152 151 152 147 143 135 123 99 48 34 14 353 345 339 335 330 331 331 327 322 322 323 322 322 320 318 323 326 324 322 315 312 308 310 313 314 316 304 304 309 309 307
154 153 152 145 136 128 125 124 90 41 18 358 340 333 330 326 323 322 319 317 316 320 318 317 314 312 314 322 323 322 321 309 303 303 305 306 307 310 314 313 311 305 303
156 150 141 131 125 123 122 104 57 24 2 339 327 323 323 321 321 319 316 315 318 318 312 310 308 309 311 317 320 324 315 307 304 303 306 310 310 314 321 320 313 310 307
122 118 114 114 119 115 100 76 33 2 336 320 314 312 313 312 309 305 304 309 311 308 309 308 305 302 304 311 321 324 314 312 311 309 306 312 317 319 323 320 316 314 311
110 112 114 116 115 100 82 56 0 325 309 308 308 309 309 308 300 299 303 306 306 308 308 308 306 299 302 314 321 322 321 316 315 316 315 312 319 324 326 325 319 311 313
112 116 115 112 105 98 87 17 321 303 305 307 307 307 305 305 311 304 300 300 304 309 309 307 306 298 298 314 318 321 322 321 318 315 312 313 322 328 328 325 317 319 321
127 120 124 126 120 98 81 330 301 306 311 313 310 305 302 294 291 294 300 306 305 305 306 305 306 309 308 313 319 320 320 321 320 311 313 321 328 329 325 318 321 324 317
138 130 128 123 104 18 339 291 295 307 316 313 306 300 297 296 292 292 293 298 301 300 303 306 310 313 314 313 311 312 316 319 319 313 315 325 326 324 320 320 319 314 308
138 127 119 116 308 315 312 307 310 319 312 301 293 294 295 295 300 297 290 297 283 295 306 309 311 314 315 314 318 323 322 322 320 325 322 318 320 319 318 317 316 313 312
125 115 112 110 306 318 316 315 316 309 297 296 296 297 299 299 302 303 303 303 307 312 312 312 313 313 312 317 321 324 326 330 332 332 324 321 319 319 320 319 317 314 312